Retour au catalogue

ARIANE 5 R/B

ActifHEO
NORAD 41795·ROCKET BODY·🇫🇷 France

Lancé Oct 5, 2016 depuis Guiana Space Centre

Loading…

Prochains Passages (prochaines 24 heures)

TLE

FraisSource: Space-Track

Époque: Sep 14, 2026, 04:36 UTC

1 41795U 16060C   26257.19221014  .00025199  00000-0  16779-2 0  9999
2 41795   5.8756 266.5666 6896658 265.8519  19.2306  2.81118813 90193

Suivez ARIANE 5 R/B en temps réel avec AllMySat

Download on the App Store